www.pogodaiklimat.ru

Погода и климат >> Архив погоды >> Норвегия >> Маяк Slatteroy


ПОГОДА на Маяке Slatteroy

  • Прогноз погоды на Маяке Slatteroy
  • Монитор погоды на Маяке Slatteroy

АРХИВ ПОГОДЫ на Маяке Slatteroy

Время (UTC), дата Ветер
(напр.,м/с)
 
Видим.   Явления Облачность Т
(С)
Тd
(С)
f
(%)
Тe
(С)
Тes
(С)
Комфортность P
(гПа)
Po
(гПа)
Тmin
(С)
Tmax
(С)
R
(мм)
R24
(мм)
S
(см)
13 12.08 С 13
{17}
н/о н/о +14.8 +14.0 95 +12 +12 1002.2 1000.3
14 12.08 н/о
15 12.08 СЗ 10
{15}
н/о н/о +13.7 +13.6 99 +11 +11 1004.2 1002.3
16 12.08 З 13
{16}
н/о н/о +13.4 +13.3 99 +10 +10 1004.6 1002.7
17 12.08 СЗ 14
{17}
н/о н/о +13.2 +13.1 99 +9 +9 1004.8 1002.9
18 12.08 СЗ 13
{17}
н/о н/о +13.5 +13.4 99 +10 +10 1005.6 1003.7 +12.9 +14.9
19 12.08 СЗ 12
{16}
н/о н/о +13.6 +12.8 95 +10 +10 1006.2 1004.3
20 12.08 СЗ 12
{15}
н/о н/о +13.7 +11.2 85 +10 +10 1006.7 1004.8
21 12.08 СЗ 11
{15}
н/о н/о +13.5 +11.7 89 +10 +10 1006.9 1005.0
22 12.08 СЗ 10
{13}
н/о н/о +13.9 +9.9 77 +11 +11 1007.0 1005.1
23 12.08 СЗ 9
{12}
н/о н/о +13.8 +11.2 84 +11 +11 1007.5 1005.6
00 13.08 СЗ 9
{16}
н/о н/о +12.6 +12.1 97 +9 +9 1007.4 1005.4
01 13.08 СЗ 9
{11}
н/о н/о +12.5 +12.0 97 +9 +9 1007.4 1005.4
02 13.08 СЗ 8
{11}
н/о н/о +14.0 +10.8 81 +12 +12 1007.2 1005.3
03 13.08 СЗ 8
{11}
н/о н/о +13.6 +9.8 78 +11 +11 1006.8 1004.9
04 13.08 СЗ 8
{11}
н/о н/о +13.8 +9.9 77 +11 +11 1006.8 1004.9
05 13.08 СЗ 8
{11}
н/о н/о +13.9 +9.9 77 +11 +11 1006.8 1004.9
06 13.08 С 10
{13}
н/о н/о +13.2 +12.1 93 +10 +10 1006.7 1004.8 +11.9 +14.1
07 13.08 С 6
{13}
н/о н/о +12.4 +11.9 97 +10 +10 1007.3 1005.3
08 13.08 СЗ 10
{13}
н/о н/о +13.5 +11.6 88 +10 +10 1007.4 1005.5
09 13.08 СЗ 9
{13}
н/о н/о +13.4 +11.1 86 +10 +10 1007.6 1005.7
10 13.08 С 7
{12}
н/о н/о +13.2 +10.7 85 +11 +11 1007.8 1005.8
11 13.08 С 6
{11}
н/о н/о +13.0 +9.6 80 +11 +11 1008.4 1006.4
12 13.08 С 6
{13}
н/о н/о +13.3 +9.4 77 +11 +11 1008.5 1006.5
13 13.08 СЗ 5
{11}
н/о н/о +13.1 +8.8 75 +11 +11 1008.9 1006.9
14 13.08 С 9
{13}
н/о н/о +13.2 +11.4 89 +10 +10 1008.7 1006.7
15 13.08 С 6
{10}
н/о н/о +13.3 +9.7 79 +11 +11 1009.1 1007.1
16 13.08 СЗ 4
{8}
н/о н/о +13.7 +9.9 78 +12 +12 1009.0 1007.1
17 13.08 С 5
{9}
н/о н/о +13.6 +9.8 78 +12 +12 1009.1 1007.2
18 13.08 СЗ 6
{13}
н/о н/о +13.8 +7.6 66 +12 +12 1009.2 1007.3 +11.7 +14.0
19 13.08 СЗ 5
{8}
н/о н/о +13.7 +7.9 68 +12 +12 1009.2 1007.3
20 13.08 З 4
{7}
н/о н/о +13.6 +7.2 65 +12 +12 1009.4 1007.4
21 13.08 СЗ 3
{6}
н/о н/о +13.6 +7.2 65 +13 +13 1009.4 1007.4
22 13.08 СЗ 2
{5}
н/о н/о +13.5 +7.7 68 +13 +13 1009.3 1007.3
23 13.08 З 1
{4}
н/о н/о +13.5 +7.7 68 +14 +14 1009.3 1007.3
00 14.08 ЮЗ 2
{8}
н/о н/о +12.6 +9.3 80 +12 +12 1009.0 1007.0
01 14.08 Ю 2
{3}
н/о н/о +11.6 +10.0 90 +10 +10 1008.8 1006.8
02 14.08 ЮВ 2
{3}
н/о н/о +11.7 +11.6 99 +10 +10 1008.7 1006.7
03 14.08 ЮВ 2
{4}
н/о н/о +11.5 +10.9 96 +10 +10 1008.6 1006.6
04 14.08 Ю 4
{5}
н/о н/о +11.1 +11.0 99 +9 +9 1008.7 1006.7
05 14.08 ЮВ 5
{7}
н/о н/о +11.2 +11.1 99 +8 +8 1008.6 1006.6
06 14.08 ЮВ 5
{7}
н/о н/о +11.2 +11.1 99 +8 +8 1008.7 1006.7 +10.8 +13.9
07 14.08 ЮВ 4
{7}
н/о н/о +12.1 +10.7 91 +10 +10 1008.6 1006.6
08 14.08 ЮВ 5
{7}
н/о н/о +12.9 +11.5 91 +11 +11 1008.8 1006.8
09 14.08 ЮВ 1
{7}
н/о н/о +14.1 +11.4 84 +14 +14 1008.9 1007.0
10 14.08 Ю 4
{6}
н/о н/о +13.4 +10.8 84 +12 +12 1009.0 1007.0
11 14.08 Ю 4
{8}
н/о н/о +13.6 +10.4 81 +12 +12 1008.9 1007.0
12 14.08 ЮЗ 6
{8}
н/о н/о +14.6 +9.6 72 +13 +13 1009.1 1007.2
13 14.08 ЮЗ 6
{10}
н/о н/о +14.8 +9.6 71 +13 +13 1009.2 1007.3
14 14.08 ЮЗ 7
{12}
н/о н/о +14.4 +8.8 69 +12 +12 1009.2 1007.3
15 14.08 ЮЗ 5
{8}
н/о н/о +14.5 +10.1 75 +13 +13 1009.4 1007.5
16 14.08 ЮЗ 6
{7}
н/о н/о +14.7 +8.2 65 +13 +13 1009.3 1007.4
17 14.08 ЮЗ 4
{7}
н/о н/о +14.7 +9.5 71 +14 +14 1009.3 1007.4
18 14.08 ЮЗ 3
{12}
н/о н/о +14.4 +9.2 71 +14 +14 1009.3 1007.4 +11.0 +15.0
19 14.08 ЮЗ 4
{5}
н/о н/о +14.3 +9.1 71 +13 +13 1009.1 1007.2
20 14.08 ЮЗ 3
{5}
н/о н/о +14.3 +8.7 69 +13 +13 1009.1 1007.2
21 14.08 ЮВ 2
{4}
н/о н/о +12.9 +10.6 86 +12 +12 1009.2 1007.2
22 14.08 ЮВ 3
{4}
н/о н/о +12.3 +10.4 88 +11 +11 1009.1 1007.1
23 14.08 ЮВ 5
{6}
н/о н/о +12.2 +10.6 90 +10 +10 1008.9 1006.9
00 15.08 ЮВ 5
{6}
н/о н/о +11.8 +11.7 99 +9 +9 1008.6 1006.6
01 15.08 ЮВ 5
{7}
н/о н/о +11.7 +11.6 99 +9 +9 1008.1 1006.1
02 15.08 ЮВ 5
{7}
н/о н/о +11.4 +11.3 99 +9 +9 1007.6 1005.6
03 15.08 ЮВ 5
{6}
н/о н/о +11.4 +10.9 97 +9 +9 1007.0 1005.0
04 15.08 ЮВ 5
{7}
н/о н/о +11.4 +9.8 90 +9 +9 1006.6 1004.6
05 15.08 В 4
{6}
н/о н/о +11.9 +9.5 85 +10 +10 1006.1 1004.1
06 15.08 В 3
{7}
н/о н/о +12.5 +8.8 78 +11 +11 1005.9 1003.9 +11.3 +14.6
07 15.08 В 3
{5}
н/о н/о +13.5 +6.8 64 +12 +12 1005.3 1003.4
08 15.08 ЮВ 6
{8}
н/о н/о +14.6 +6.2 57 +13 +13 1004.9 1003.0
09 15.08 ЮВ 5
{8}
н/о н/о +15.7 +5.3 50 +15 +15 1004.4 1002.5
10 15.08 ЮВ 5
{8}
н/о н/о +16.4 +4.8 46 +16 +16 1003.9 1002.0
11 15.08 ЮВ 4
{8}
н/о н/о +18.0 +4.9 42 +18 +18 1003.5 1001.6
12 15.08 ЮВ 5
{8}
н/о н/о +18.6 +6.1 44 +19 +19 1003.0 1001.1
13 15.08 ЮВ 3
{7}
н/о н/о +19.3 +7.1 45 +20 +20 1002.7 1000.8
14 15.08 Ю 6
{8}
н/о н/о +19.4 +9.6 53 +20 +20 1002.4 1000.5
15 15.08 Ю 5
{10}
н/о н/о +16.8 +13.3 80 +16 +16 1002.7 1000.8
16 15.08 ЮВ 7
{9}
н/о н/о +17.6 +11.4 67 +17 +17 1002.3 1000.4
17 15.08 ЮВ 3
{8}
н/о н/о +17.2 +12.5 74 +17 +17 1002.2 1000.3
18 15.08 ЮВ 4
{10}
н/о н/о +17.4 +12.3 72 +17 +17 1002.3 1000.4 +12.5 +19.5
19 15.08 ЮВ 3
{6}
н/о н/о +15.7 +13.9 89 +15 +15 1002.4 1000.5
20 15.08 ЮВ 3
{6}
н/о н/о +14.8 +14.6 99 +14 +14 1002.6 1000.7
21 15.08 Ю 2
{4}
н/о н/о +14.4 +14.2 99 +14 +14 1003.1 1001.2
22 15.08 ЮВ 2
{3}
н/о н/о +14.1 +14.0 99 +13 +13 1003.4 1001.5
23 15.08 СЗ 11
{13}
н/о н/о +13.4 +13.3 99 +10 +10 1004.0 1002.1
00 16.08 СЗ 10
{14}
н/о н/о +13.1 +13.0 99 +10 +10 1004.9 1003.0
01 16.08 СЗ 9
{12}
н/о н/о +14.0 +10.8 81 +11 +11 1005.6 1003.7
02 16.08 СЗ 8
{11}
н/о н/о +13.7 +10.5 81 +11 +11 1006.3 1004.4
03 16.08 СЗ 6
{9}
н/о н/о +13.7 +9.0 73 +12 +12 1006.8 1004.9
04 16.08 СЗ 5
{7}
н/о н/о +13.6 +8.2 70 +12 +12 1007.1 1005.2
05 16.08 СЗ 3
{6}
н/о н/о +13.6 +7.4 66 +13 +13 1007.4 1005.5
06 16.08 З 2
{12}
н/о н/о +13.8 +7.4 65 +13 +13 1007.6 1005.7 +12.9 +17.4
07 16.08 ЮЗ 3
{4}
н/о н/о +13.9 +7.4 65 +13 +13 1007.9 1006.0
08 16.08 Ю 3
{4}
н/о н/о +14.5 +7.3 62 +14 +14 1008.0 1006.1
09 16.08 Ю 5
{7}
н/о н/о +14.4 +8.8 69 +13 +13 1008.1 1006.2
10 16.08 Ю 5
{7}
н/о н/о +14.7 +9.3 70 +13 +13 1007.9 1006.0
11 16.08 Ю 7
{9}
н/о н/о +15.1 +8.1 63 +13 +13 1007.7 1005.8
12 16.08 Ю 7
{10}
н/о н/о +15.3 +8.3 63 +14 +14 1007.2 1005.3
13 16.08 Ю 7
{10}
н/о н/о +15.4 +9.8 69 +14 +14 1006.6 1004.7
14 16.08 Ю 8
{11}
н/о н/о +15.4 +10.0 70 +14 +14 1006.2 1004.3
15 16.08 Ю 7
{11}
н/о н/о +14.7 +10.7 77 +13 +13 1005.8 1003.9
16 16.08 Ю 7
{11}
н/о н/о +15.8 +9.5 66 +14 +14 1005.0 1003.1
17 16.08 ЮВ 6
{11}
н/о н/о +15.5 +11.9 79 +14 +14 1004.4 1002.5
18 16.08 ЮВ 8
{11}
н/о н/о +15.3 +12.4 83 +13 +13 1003.6 1001.7 +13.7 +16.0
19 16.08 ЮВ 8
{14}
н/о н/о +14.9 +13.3 90 +13 +13 1003.2 1001.3
20 16.08 ЮВ 9
{13}
н/о н/о +14.7 +13.9 95 +12 +12 1002.7 1000.8
21 16.08 ЮВ 8
{12}
н/о н/о +14.5 +14.0 97 +12 +12 1002.0 1000.1
22 16.08 ЮВ 10
{14}
н/о н/о +14.7 +13.6 93 +12 +12 1001.0 999.1
23 16.08 ЮВ 9
{15}
н/о н/о +15.3 +12.1 81 +13 +13 999.8 997.9
00 17.08 ЮВ 10
{15}
н/о н/о +15.7 +11.1 74 +14 +14 999.0 997.1
01 17.08 ЮВ 10
{18}
н/о н/о +14.0 +13.1 94 +11 +11 998.1 996.2
02 17.08 ЮВ 6
{12}
н/о н/о +13.6 +13.5 99 +11 +11 997.1 995.2
03 17.08 ЮВ 9
{12}
н/о н/о +13.6 +13.5 99 +11 +11 995.7 993.8
04 17.08 ЮВ 8
{12}
н/о н/о +13.9 +13.8 99 +11 +11 994.6 992.7
05 17.08 ЮВ 8
{11}
н/о н/о +14.0 +13.9 99 +11 +11 993.7 991.8
06 17.08 ЮВ 7
{18}
н/о н/о +13.9 +13.8 99 +11 +11 993.3 991.4 +13.5 +15.8
07 17.08 ЮВ 7
{10}
н/о н/о +14.5 +14.3 99 +12 +12 992.6 990.7
08 17.08 ЮВ 7
{11}
н/о н/о +14.9 +14.7 99 +13 +13 991.9 990.0
09 17.08 Ю 7
{13}
н/о н/о +15.5 +14 +14 991.9 990.0
10 17.08 Ю 8
{14}
н/о н/о +16.2 +15 +15 991.9 990.0
11 17.08 Ю 10
{15}
н/о н/о +16.9 +16.7 99 +15 +15 992.1 990.2
12 17.08 Ю 10
{15}
н/о н/о +17.2 +17.0 99 +16 +16 992.6 990.7
13 17.08 Ю 11
{18}
н/о н/о +17.1 +16.0 93 +15 +15 993.2 991.3
14 17.08 Ю 12
{18}
н/о н/о +17.1 +15.8 92 +15 +15 993.6 991.7
15 17.08 Ю 11
{16}
н/о н/о +16.9 +15.3 90 +15 +15 994.1 992.2
16 17.08 Ю 9
{16}
н/о н/о +16.9 +15.3 90 +15 +15 994.5 992.6
17 17.08 Ю 10
{15}
н/о н/о +16.2 +15.7 97 +14 +14 994.7 992.8
18 17.08 ЮЗ 12
{18}
н/о н/о +15.0 +14.8 99 +12 +12 995.0 993.1 +13.9 +17.4
19 17.08 ЮЗ 10
{15}
н/о н/о +15.2 +12.2 82 +13 +13 996.0 994.1
20 17.08 ЮЗ 9
{12}
н/о н/о +15.3 +11.7 79 +13 +13 996.7 994.8
21 17.08 Ю 6
{11}
н/о н/о +15.3 +12.8 85 +14 +14 997.5 995.6
22 17.08 Ю 8
{12}
н/о н/о +15.1 +13.0 87 +13 +13 997.5 995.6
23 17.08 Ю 6
{12}
н/о н/о +13.9 +12.6 92 +12 +12 997.8 995.9
00 18.08 Ю 8
{15}
н/о н/о +14.4 +13.0 91 +12 +12 997.8 995.9
01 18.08 Ю 9
{14}
н/о н/о +15.5 +12.6 83 +13 +13 997.9 996.0
02 18.08 Ю 8
{13}
н/о н/о +15.6 +13.6 88 +14 +14 997.8 995.9
03 18.08 ЮВ 6
{13}
н/о н/о +14.4 +14.2 99 +12 +12 997.8 995.9
04 18.08 ЮВ 7
{9}
н/о н/о +14.2 +14.1 99 +12 +12 997.8 995.9
05 18.08 ЮВ 6
{9}
н/о н/о +14.6 +14.4 99 +13 +13 997.6 995.7
06 18.08 ЮВ 7
{14}
н/о н/о +14.6 +13.5 93 +12 +12 997.2 995.3 +13.3 +15.7
07 18.08 ЮВ 7
{11}
н/о н/о +14.9 +14.7 99 +13 +13 997.1 995.2
08 18.08 Ю 8
{14}
н/о н/о +15.3 +15.1 99 +13 +13 996.8 994.9
09 18.08 Ю 8
{13}
н/о н/о +16.4 +14.1 86 +15 +15 997.0 995.1
10 18.08 Ю 7
{13}
н/о н/о +17.0 +12.5 75 +16 +16 997.0 995.1
11 18.08 Ю 9
{16}
н/о н/о +18.1 +10.5 61 +17 +17 996.5 994.6
12 18.08 Ю 11
{17}
н/о н/о +17.2 +10.3 64 +16 +16 996.6 994.7
13 18.08 ЮВ 8
{17}
н/о н/о +16.8 +12.6 76 +15 +15 996.9 995.0
14 18.08 Ю 5
{15}
н/о н/о +15.4 +14.6 95 +14 +14 996.9 995.0
15 18.08 Ю 8
{15}
н/о н/о +15.9 +13.0 83 +14 +14 996.8 994.9
16 18.08 ЮВ 8
{12}
н/о н/о +15.4 +12.7 84 +13 +13 996.7 994.8
17 18.08 ЮВ 4
{11}
н/о н/о +14.3 +14.1 99 +13 +13 996.7 994.8
18 18.08 Ю 5
{17}
н/о н/о +15.3 +13.2 87 +14 +14 996.1 994.2 +14.1 +18.2
19 18.08 Ю 6
{12}
н/о н/о +14.3 +13.8 97 +12 +12 996.0 994.1
20 18.08 ЮВ 5
{8}
н/о н/о +14.4 +14.2 99 +13 +13 996.2 994.3
21 18.08 ЮВ 6
{10}
н/о н/о +13.9 +13.8 99 +12 +12 996.3 994.4
22 18.08 ЮВ 7
{10}
н/о н/о +13.8 +13.7 99 +11 +11 996.3 994.4
23 18.08 ЮВ 7
{10}
н/о н/о +13.9 +13.8 99 +11 +11 995.7 993.8
00 19.08 ЮВ 9
{13}
н/о н/о +13.9 +13.8 99 +11 +11 995.8 993.9
01 19.08 ЮВ 9
{13}
н/о н/о +13.6 +13.5 99 +11 +11 995.0 993.1
02 19.08 ЮВ 7
{14}
н/о н/о +13.4 +13.3 99 +11 +11 994.8 992.9
03 19.08 Ю 9
{14}
н/о н/о +15.1 +14.9 99 +13 +13 994.6 992.7
05 19.08 Ю 10
{16}
н/о н/о +14.3 +14.1 99 +11 +11 995.3 993.4
06 19.08 н/о
07 19.08 ЮЗ 12
{14}
н/о н/о +15.2 +13.7 91 +13 +13 996.2 994.3
08 19.08 ЮЗ 11
{14}
н/о н/о +15.2 +15.0 99 +13 +13 997.0 995.1
09 19.08 ЮЗ 12
{15}
н/о н/о +15.2 +12.9 86 +13 +13 997.8 995.9
10 19.08 ЮЗ 12
{15}
н/о н/о +15.5 +13.9 90 +13 +13 998.6 996.7
11 19.08 ЮЗ 10
{15}
н/о н/о +14.1 +13.0 93 +11 +11 999.6 997.7

 

Местоположение метеостанции Маяк Slatteroy (Норвегия): широта 59.91 долгота 5.07 высота над уровнем моря 25 м.

В архиве по умолчанию представлена погода на Маяке Slatteroy за последнюю неделю. Архивные данные за месяц целиком и за предыдущие месяцы, начиная с января 2011 года, Вы можете получить, выбрав интересующий диапазон дат из раскрывающегося списка и нажав кнопку "Ввод!".


*Определитесь, кто Вы:
робот инопланетянин человек

Внимание! Время в таблицах - всемирное. Для получения местного времени необходимо прибавить поправку, которая равна 1 ч.

Смотрите также архив погоды в соседних городах и на ближайших метеорологических станциях:

Погода в Эустеволле (Норвегия) (15 км)
Погода в Роваере (Норвегия) (52 км)
Погода в Бергене (Норвегия) (54 км)
Погода в Недре Ватс (Норвегия) (59 км)
Погода в Аэропорту Haugesund (Норвегия) (63 км)
Погода на Маяке Utsira (Норвегия) (68 км)
Погода в Квамскогене (Норвегия) (72 км)
Погода в Фоссмарке (Норвегия) (77 км)
Погода в Сауде (Норвегия) (77 км)
Погода на Квамсое (Норвегия) (83 км)

Пояснения к столбцам:

Ветер - указаны скорость ветра в м/с - средняя за 10 мин, порывы в срок и между сроками (в фигурных скобках) и направление, откуда дует ветер: С - северный, СВ - северо-восточный, В - восточный, ЮВ - юго-восточный, Ю - южный, ЮЗ - юго-западный, З - западный, СЗ - северо-западный.
Видимость - горизонтальная дальность видимости в метрах или километрах. При видимости от 1 до 10 км при отсутствии осадков обычно наблюдается дымка, при ухудшении видимости до 1 км и менее - туман. В сухую погоду видимость может ухудшаться дымом, пылью или мглою.
Явления - указаны атмосферные явления, наблюдавшиеся в срок или в последний час перед сроком; фигурными скобками обозначены явления, наблюдавшиеся между сроками (за 1-3 часа до срока); квадратными скобками обозначены град или гололедные отложения с указанием их диаметра в мм.
Облачность - указаны через наклонную черту общая и нижняя облачность в баллах и высота нижней границы облаков в метрах; квадратными скобками обозначены формы облаков: Ci - перистые, Cs - перисто-слоистые, Cc - перисто-кучевые, Ac - высококучевые, As - высокослоистые, Sc - слоисто-кучевые, Ns - слоисто-дождевые, Cu - кучевые, Cb - кучево-дождевые. Подробнее классификацию облаков см. в Атласе облаков (PDF).
T - Температура воздуха - температура, измеренная на высоте 2 м над землей.
Td - Температура точки росы - температура, при понижении до которой содержащийся в воздухе водяной пар достигнет насыщения.
f - Относительная влажность воздуха - влажноcть воздуха, измеренная на высоте 2 м над землей.
Te - Эффективная температура - температура, которую ощущает одетый по сезону человек в тени. Характеристика душности погоды. При расчете учитывается влияние влажности воздуха и скорости ветра на теплоощущения человека.
Tes - Эффективная температура на солнце - температура, которую ощущает человек, с поправкой на солнечный нагрев. Характеристика знойности погоды. Зависит от высоты солнца над горизонтом, облачности и скорости ветра. Ночью, в пасмурную погоду, а также при ветре 12 м/с и более поправка равна нулю.
P - Атмосферное давление - приведенное к уровню моря атмосферное давление.
Po - Атмосферное давление - измеренное на уровне метеостанции атмосферное давление.
Tmin - Минимальная температура - минимум температуры воздуха на высоте 2 м над землей.
Tmax - Максимальная температура - максимум температуры воздуха на высоте 2 м над землей.
R - Количество осадков - Количество выпавших осадков за период времени, мм. При наведении курсора мыши на число - период времени, за который выпало указанное количество осадков.
R24 - Количество осадков - Количество выпавших осадков за 24 часа, мм.
S - Снежный покров - Высота снежного покрова, см. При наведении курсора мыши на число - состояние снежного покрова и степень покрытия местности в баллах.